EW5485 Weather Reports


Display with metric or nautical units.
time (UTC)temp
F
wind
direction
speed
MPH
gust
MPH
rain 1hr
in
rain 24hr
in
rain mn
in
humidity
%
barometer
mb
20260505074504 41 36 1.0 5.0 0.00 0.00 0.00 98 1024.2
20260505073003 41 83 1.0 5.0 0.00 0.00 0.00 97 1024.5
20260505071502 41 45 1.0 9.0 0.00 0.00 0.00 97 1024.6
20260505070005 41 88 1.0 6.0 0.00 0.00 0.00 97 1024.5
20260505064501 41 68 3.0 7.0 0.00 0.00 0.00 97 1024.5
20260505063100 41 4 3.0 6.0 0.00 0.00 0.00 97 1024.4
20260505061605 41 46 2.0 5.0 0.00 0.00 0.00 97 1024.7
20260505060057 41 10 1.0 6.0 0.00 0.00 0.00 97 1024.7
20260505054555 41 91 2.0 6.0 0.00 0.00 0.00 96 1024.8
20260505053105 41 45 1.0 7.0 0.00 0.00 0.00 96 1024.8
20260505051553 42 52 1.0 5.0 0.00 0.00 0.00 96 1024.8
20260505041548 44 38 1.0 4.0 0.00 0.00 0.00 94 1025.2
20260505040047 45 125 0.0 0.0 0.00 0.00 0.00 93 1025.1
20260505034546 46 93 0.0 0.0 0.00 0.00 0.00 94 1025.3
20260505033106 46 134 0.0 2.0 0.00 0.00 0.00 93 1025.2
20260505031544 46 360 0.0 2.0 0.00 0.00 0.00 95 1025.3
20260505030043 46 106 0.0 2.0 0.00 0.00 0.00 97 1025.4
20260505024539 45 70 1.0 4.0 0.00 0.00 0.00 97 1025.5
20260505023046 44 132 0.0 0.0 0.00 0.00 0.00 97 1025.6
20260505021535 44 69 1.0 5.0 0.00 0.00 0.00 98 1025.7
20260505020032 43 4 0.0 3.0 0.00 0.00 0.00 98 1026.1
20260505014532 42 358 0.0 1.0 0.00 0.00 0.00 98 1026.4
20260505013027 42 358 0.0 0.0 0.00 0.00 0.00 98 1026.5
20260505011525 41 3 0.0 0.0 0.00 0.00 0.00 98 1026.9
20260505010023 41 17 0.0 0.0 0.00 0.00 0.00 98 1027.3
20260505004536 41 197 0.0 0.0 0.00 0.00 0.00 98 1027.5
20260505003019 40 164 0.0 0.0 0.00 0.00 0.00 98 1027.7
20260505001516 40 162 0.0 0.0 0.00 0.00 0.00 98 1028.1
20260505000020 39 344 0.0 0.0 0.00 0.00 0.00 98 1028.3
20260504234522 39 309 0.0 0.0 0.00 0.00 0.00 98 1028.6
20260504233011 39 294 0.0 0.0 0.00 0.00 0.00 98 1028.8
20260504231530 39 245 0.0 0.0 0.00 0.00 0.00 98 1028.9
20260504230011 38 299 0.0 0.0 0.00 0.00 0.00 98 1029.0
20260504224508 38 159 0.0 0.0 0.00 0.00 0.00 98 1028.8
20260504223008 38 299 0.0 0.0 0.00 0.00 0.00 98 1029.0
20260504221507 38 7 0.0 0.0 0.00 0.00 0.00 98 1029.1
20260504220007 37 353 0.0 0.0 0.00 0.00 0.00 98 1029.1
20260504214511 36 310 0.0 0.0 0.00 0.00 0.00 98 1029.3
20260504213007 35 294 0.0 0.0 0.00 0.00 0.00 98 1029.2
20260504211505 35 328 0.0 0.0 0.00 0.00 0.00 98 1029.4
20260504210007 34 292 0.0 0.0 0.00 0.00 0.00 98 1029.3
20260504204505 33 350 0.0 0.0 0.00 0.00 0.00 98 1029.3
20260504203004 33 308 0.0 0.0 0.00 0.00 0.00 98 1029.3
20260504201503 33 333 0.0 0.0 0.00 0.00 0.00 98 1029.2
20260504200008 32 306 0.0 0.0 0.00 0.00 0.00 98 1029.2
20260504194600 33 302 0.0 0.0 0.00 0.00 0.00 98 1029.0
20260504193056 0 0.0 0.0 0.00 0.00 0.00 1029.0
20260504191552 0 0.0 0.0 0.00 0.00 0.00 1029.0
20260504190056 0 0.0 0.0 0.00 0.00 0.00 1028.9
20260504184558 0 0.0 0.0 0.00 0.00 0.00 1029.0
20260504183038 0 0.0 0.0 0.00 0.00 0.00 1029.0
20260504181534 0 0.0 0.0 0.00 0.00 0.00 1028.9
20260504180030 0 0.0 0.0 0.00 0.00 0.00 1029.0
20260504174525 0 0.0 0.0 0.00 0.00 0.00 1029.1
20260504173020 0 0.0 0.0 0.00 0.00 0.00 1029.2
20260504171533 0 0.0 0.0 0.00 0.00 0.00 1029.1
20260504081514 39 134 0.0 1.0 0.00 0.00 0.00 96 1030.5